Probability
0 0 0 0 0 0 0 0 0 0 0 0 1 3 7 12 15 18 21 24 23 25 31 36 36 37 42 46 45 43 43 43 41 38 34 30 28 29 29 25 20 16 15 15
0 0 0 0 0 0 0 0 0 0 0 0 0 2 7 10 12 15 19 22 22 24 28 31 31 33 37 37 33 31 32 34 31 28 27 27 26 24 22 21 20 17 14 13
0 0 0 0 0 0 0 0 0 0 0 0 0 2 4 5 7 9 13 17 18 19 22 24 25 26 28 26 20 18 20 21 18 15 18 22 22 18 17 19 17 15 12 9
0 0 0 0 0 0 0 0 0 0 0 0 0 1 2 2 3 6 7 8 10 10 13 16 18 17 17 16 12 11 13 13 9 7 10 14 15 12 12 14 14 12 9 8
0 0 0 0 0 0 0 0 0 0 0 0 0 0 1 3 5 6 4 2 2 3 6 10 10 9 8 8 7 8 10 10 7 6 7 7 6 6 7 8 9 9 8 7
0 0 0 0 0 0 0 0 0 0 0 0 0 1 3 6 7 6 3 1 0 1 3 6 5 4 4 4 4 5 7 9 9 9 8 7 5 5 6 6 6 6 5 5
0 0 0 0 0 0 0 0 0 0 0 0 0 2 5 6 7 6 3 1 0 0 2 4 3 1 2 2 1 2 3 6 7 8 9 10 9 8 8 7 6 4 3 2
0 0 0 0 0 0 0 0 0 0 0 0 0 3 5 5 4 4 3 1 0 0 1 1 1 0 1 1 0 0 2 5 6 7 9 11 11 11 10 9 6 4 2 2
0 0 0 0 0 0 0 0 0 0 0 0 1 3 4 2 1 1 1 0 0 0 0 1 0 0 0 0 0 1 4 7 8 9 10 10 11 11 10 9 7 4 2 1
0 0 0 0 0 0 0 0 0 0 0 0 0 2 2 1 0 0 0 0 0 0 0 0 0 0 0 0 0 1 3 6 8 9 9 8 8 9 8 6 4 2 1 0
0 0 0 0 0 0 0 0 0 0 0 0 0 0 0 0 0 0 0 0 0 0 0 0 0 0 0 0 0 0 1 3 5 5 6 6 6 6 5 3 1 0 0 1
0 0 0 0 0 0 0 0 0 0 0 0 0 0 0 0 0 0 0 0 0 0 0 0 0 0 0 0 0 0 1 2 2 3 3 4 5 5 5 3 1 0 0 1
0 0 0 0 0 0 0 0 0 0 0 0 0 0 0 0 0 0 0 0 0 0 0 0 0 0 0 0 0 0 0 1 1 1 1 2 4 4 5 4 2 1 1 1
0 0 0 0 0 0 0 0 0 0 0 0 0 0 0 0 0 0 0 0 0 0 0 0 0 0 0 0 0 0 0 0 0 0 0 1 2 3 4 5 4 3 3 2
0 0 0 0 0 0 0 0 0 0 0 0 0 0 0 0 0 0 0 0 0 0 0 0 0 0 0 0 0 0 0 0 0 0 0 0 1 3 6 7 6 6 5 4
0 0 0 0 0 0 0 0 0 0 0 0 0 0 0 0 0 0 0 0 0 0 0 0 0 0 0 0 0 0 0 0 0 0 0 0 1 3 5 6 6 6 6 5
0 0 0 0 0 0 0 0 0 0 0 0 0 0 0 0 0 0 0 0 0 0 0 0 0 0 0 0 0 0 0 0 0 0 0 0 0 1 2 3 3 4 5 6
0 0 0 0 0 0 0 0 0 0 0 0 0 0 0 0 0 0 0 0 0 0 0 0 0 0 0 0 0 0 0 0 0 0 0 0 0 0 0 1 1 3 4 4
0 0 0 0 0 0 0 0 0 0 0 0 0 0 0 0 0 0 0 0 0 0 0 0 0 0 0 0 0 0 0 0 0 0 0 0 0 0 0 0 1 1 2 2
0 0 0 0 0 0 0 0 0 0 0 0 0 0 0 0 0 0 0 0 0 0 0 0 0 0 0 0 0 0 0 0 0 0 0 0 0 0 0 0 0 0 1 1
0 0 0 0 0 0 0 0 0 0 0 0 0 0 0 0 0 0 0 0 0 0 0 0 0 0 0 0 0 0 0 0 0 0 0 0 0 0 0 0 0 0 0 0
0 0 0 0 0 0 0 0 0 0 0 0 0 0 0 0 0 0 0 0 0 0 0 0 0 0 0 0 0 0 0 0 0 0 0 0 0 0 0 0 0 0 0 0
0 0 0 0 0 0 0 0 0 0 0 0 0 0 0 0 0 0 0 0 0 0 0 0 0 0 0 0 0 0 0 0 0 0 0 0 0 0 0 0 0 0 0 0
0 0 0 0 0 0 0 0 0 0 0 0 0 0 0 0 0 0 0 0 0 0 0 0 0 0 0 0 0 0 0 0 0 0 0 0 0 0 0 0 0 0 0 0
0 0 0 0 0 0 0 0 0 0 0 0 0 0 0 0 0 0 0 0 0 0 0 0 0 0 0 0 0 0 0 0 0 0 0 0 0 0 0 0 0 0 0 0
0 0 0 0 0 0 0 0 0 0 0 0 0 0 0 0 0 0 0 0 0 0 0 0 0 0 0 0 0 0 0 0 0 0 0 0 0 0 0 0 0 0 0 0
Wind_Speed
6 9 7 3 4 5 5 5 3 2 2 1 2 5 6 6 7 8 8 8 9 9 8 8 7 7 6 6 5 4 2 1 0 1 3 4 4 4 4 3 4 6 7 8
8 8 3 4 4 6 7 7 4 2 2 3 2 4 6 6 7 7 7 7 7 7 7 7 6 6 6 5 4 3 2 1 1 2 3 3 3 2 2 2 3 5 6 6
6 2 1 4 5 7 7 6 4 2 3 5 5 7 8 7 6 6 7 6 7 6 6 6 6 6 5 4 3 2 1 1 2 3 3 2 2 3 2 2 2 3 3 4
3 1 4 6 4 6 5 2 4 4 7 3 5 3 9 7 6 6 5 5 6 5 5 4 4 4 4 3 2 2 1 1 1 2 2 2 2 2 2 2 1 2 2 2
1 2 5 5 3 5 4 2 4 6 8 7 4 7 9 6 5 6 5 4 4 4 4 3 2 2 2 1 1 0 0 1 2 3 2 3 2 2 1 2 1 2 1 2
2 1 3 4 2 1 1 4 6 8 8 6 2 6 5 6 5 5 4 4 3 2 2 1 1 1 2 2 3 2 2 3 3 4 4 4 3 3 3 3 3 3 2 2
2 3 2 2 4 4 5 7 6 5 4 1 3 4 8 8 6 5 4 2 2 1 0 1 2 4 4 5 5 5 5 5 5 5 5 5 5 5 5 5 4 4 3 3
3 1 5 6 6 6 4 8 7 8 7 5 2 2 8 6 5 3 3 2 2 2 2 4 5 6 7 7 7 7 7 8 7 8 7 7 7 7 6 6 6 5 4 4
5 3 4 5 5 6 4 4 6 9 7 7 1 7 8 5 5 4 4 3 3 4 4 6 7 8 8 9 9 9 9 9 9 10 10 10 10 10 9 8 8 7 6 5
5 5 3 1 2 5 5 3 4 5 7 7 3 2 4 7 8 7 6 6 6 6 7 8 9 9 9 10 10 10 10 10 11 12 11 10 11 11 10 11 10 10 9 8
5 5 1 2 5 8 3 2 5 4 6 8 7 4 7 7 7 8 8 8 8 9 10 11 10 10 11 11 12 11 12 12 12 13 13 13 13 13 12 12 13 12 12 11
3 6 2 5 5 4 7 7 6 6 5 5 8 4 6 5 6 7 8 9 10 11 12 13 13 12 13 13 13 13 13 13 13 13 13 14 14 14 14 14 14 14 14 13
2 4 3 7 7 4 4 6 5 4 4 5 8 5 4 5 7 8 10 11 12 13 13 13 13 13 14 14 15 15 15 15 15 15 15 15 15 15 15 16 15 15 15 15
4 3 6 7 6 4 3 4 5 6 6 7 8 12 10 9 10 11 12 13 15 14 14 14 14 15 15 15 15 16 16 16 16 16 16 16 16 16 16 16 16 15 15 15
3 2 3 4 3 1 2 2 4 6 7 9 12 13 12 10 12 13 14 15 16 16 16 16 16 16 16 16 16 16 17 16 17 17 17 17 16 16 16 16 16 16 15 16
1 1 1 2 2 1 1 0 3 5 8 11 12 11 10 11 13 14 15 16 16 17 18 18 18 18 17 17 17 17 17 17 17 17 17 17 17 16 16 15 15 15 15 15
2 2 4 1 2 6 4 1 4 7 10 11 12 13 14 15 15 16 16 15 16 18 19 19 19 18 17 18 17 17 17 17 16 17 17 17 17 16 16 16 15 15 15 15
2 4 4 3 3 5 6 3 4 9 11 9 9 12 14 15 16 16 12 12 16 18 18 18 18 18 18 18 17 17 17 17 17 17 17 16 16 16 15 15 15 15 13 13
3 4 5 5 6 3 5 1 5 10 11 5 8 13 15 15 16 11 11 14 16 17 17 17 17 18 18 17 17 17 18 17 17 17 17 16 15 15 15 15 15 13 12 12
4 5 6 5 7 5 4 4 3 7 4 6 10 13 15 16 14 12 16 17 16 17 16 16 17 18 17 17 16 17 17 17 17 16 15 15 15 14 14 14 13 12 11 11
6 5 5 6 6 1 6 3 4 7 9 10 11 12 13 13 13 15 17 16 16 17 17 17 17 16 16 16 16 17 17 17 17 16 15 14 14 13 13 12 11 10 10 10
5 4 3 4 5 2 5 2 5 8 7 9 10 11 12 13 15 15 16 16 17 17 17 17 16 15 15 15 15 16 17 17 16 15 15 14 13 12 11 10 9 9 8 8
4 4 3 3 3 4 0 3 4 5 7 8 9 11 12 14 14 15 15 16 16 16 16 16 16 16 16 15 15 16 16 16 15 15 14 13 13 11 10 9 9 8 7 6
4 1 4 4 3 1 2 3 3 4 6 7 8 10 11 13 14 15 15 15 15 15 15 15 16 16 16 16 15 15 15 15 14 14 13 12 11 10 9 7 6 5 5 5
2 5 6 7 4 3 3 2 2 3 4 6 7 9 10 12 13 14 14 14 14 14 14 14 14 15 16 16 15 15 15 14 14 13 12 11 10 9 8 6 4 5 4 3
7 7 7 4 1 3 1 1 1 3 4 5 7 9 10 11 13 14 14 13 13 14 14 14 15 15 16 16 15 14 14 13 13 11 10 8 8 7 6 6 4 2 4 3
Wind_Direction
210 238 235 247 270 298 289 283 289 33 71 320 97 100 82 70 69 70 67 67 68 67 65 60 60 64 72 75 83 91 95 94 223 243 258 258 261 267 273 268 270 265 254 240
222 223 255 286 260 246 245 257 259 146 146 262 169 127 100 73 66 61 65 65 65 67 67 63 64 69 73 79 90 98 103 144 242 251 265 268 282 277 276 286 287 278 266 247
248 41 339 243 228 236 245 267 299 309 180 208 229 175 140 115 98 84 72 67 66 61 60 63 64 65 67 67 65 78 65 358 317 291 269 260 236 244 251 250 251 271 273 258
247 297 268 256 249 263 266 329 291 264 254 251 259 280 128 130 120 95 82 76 73 68 66 67 66 62 59 57 54 66 61 49 309 273 282 293 299 298 299 287 284 283 293 288
276 330 294 284 333 297 344 355 269 268 270 270 236 284 114 130 102 88 84 78 73 69 68 64 49 28 20 3 329 281 214 222 256 273 265 263 272 278 272 281 271 276 271 275
297 295 316 334 336 301 229 237 233 239 252 255 25 303 97 69 46 63 76 78 76 76 73 63 10 309 298 281 270 264 256 258 263 267 271 272 274 274 275 269 273 264 260 255
198 142 86 319 275 195 253 277 270 257 253 349 82 290 68 52 40 29 30 41 48 74 301 296 287 282 285 283 282 279 275 271 265 262 260 260 261 259 254 261 258 265 269 258
311 61 43 10 342 323 312 298 306 310 313 321 180 67 83 64 52 32 12 353 334 299 293 293 292 290 289 290 285 278 275 274 272 267 264 261 258 259 263 257 270 262 264 264
334 6 72 35 12 324 300 320 336 290 286 286 79 111 120 88 52 27 11 353 333 321 312 306 306 305 303 303 299 293 286 281 276 273 269 263 259 263 269 263 254 258 253 249
333 313 49 41 217 65 1 340 283 299 318 307 313 114 78 32 14 5 356 349 341 327 319 317 314 315 314 308 303 297 290 286 283 278 272 270 266 262 261 260 261 263 260 254
324 299 49 98 28 15 9 12 337 317 328 317 321 55 60 20 360 346 344 340 334 327 325 323 320 320 316 313 310 305 298 292 286 282 280 277 272 268 263 259 259 257 254 251
350 312 23 87 83 36 41 20 355 336 349 321 307 65 79 14 346 335 332 332 331 327 324 324 322 320 317 315 314 309 304 300 296 291 286 280 277 273 268 263 261 259 257 253
351 301 239 166 161 121 60 47 26 346 304 325 320 16 63 342 329 328 328 328 325 324 323 322 322 321 317 317 316 311 307 303 300 298 294 288 283 277 274 272 268 263 260 257
297 357 347 10 29 27 80 59 28 351 341 332 338 333 337 341 333 329 328 324 322 323 324 322 321 318 318 315 313 311 308 306 304 300 296 292 288 283 279 275 272 267 261 256
282 45 49 50 56 54 79 51 22 13 354 333 333 326 341 347 333 327 325 324 323 324 324 324 322 320 318 315 313 310 309 308 305 301 296 293 290 286 281 277 274 271 267 260
334 346 198 152 130 223 224 296 340 348 339 331 322 329 358 335 326 326 326 324 323 325 325 324 322 321 318 316 313 312 309 308 305 301 298 296 294 290 286 281 277 274 269 264
203 248 280 275 157 255 221 138 329 334 334 327 324 336 337 328 330 328 323 322 326 326 325 323 322 320 318 315 315 312 309 307 302 299 297 295 293 290 288 284 280 276 272 268
242 265 280 299 254 279 71 62 333 318 320 325 323 330 332 329 327 317 320 335 329 325 323 323 321 319 317 318 316 312 309 307 304 300 296 295 294 292 291 288 283 279 274 268
246 255 284 295 293 288 138 152 336 323 316 347 332 328 329 329 315 316 3 343 328 325 323 321 320 319 319 318 318 315 310 308 306 303 301 302 300 297 294 289 286 282 276 269
175 236 267 283 297 309 89 71 357 290 295 33 336 329 330 326 320 335 346 334 329 327 323 322 321 320 319 320 319 313 311 310 309 309 307 304 299 296 292 290 289 284 280 275
208 223 261 283 284 333 88 74 278 303 358 351 333 329 326 328 320 322 327 329 327 324 323 323 323 321 320 319 317 313 312 312 315 314 309 304 300 296 291 288 286 283 278 273
268 259 249 274 281 55 100 295 320 342 337 327 328 328 327 322 320 324 326 327 327 326 326 327 324 321 320 321 319 316 316 319 318 314 310 306 302 297 295 293 289 284 277 271
260 326 318 303 358 68 124 305 340 329 316 325 328 330 326 322 325 327 327 327 326 326 327 326 324 321 321 324 324 320 320 320 319 315 312 310 306 299 295 292 288 284 275 266
174 189 248 245 232 225 252 267 282 299 312 323 325 326 326 325 326 327 327 326 327 328 327 326 325 322 323 325 325 321 319 319 316 314 313 311 309 306 305 298 290 283 276 268
256 196 229 242 252 249 218 243 287 299 304 312 322 328 328 326 326 328 325 327 329 326 326 326 325 324 324 325 324 324 323 321 317 315 315 314 311 310 309 306 303 298 297 291
219 216 234 261 177 272 1 119 240 284 303 319 324 325 329 330 328 327 326 328 326 326 327 327 326 326 325 325 325 327 327 325 323 321 320 318 316 316 314 314 310 263 270 271